sat.trackr.live / text

‹ back to catalog

STARLINK-4427

NORAD 53210 · 2022-084X

PAYLOAD ACTIVE UNKNOWN

§ Identity

Operator
Country
US
Launch date
2022-07-22
Launch site
AFWTR
Launch vehicle
Mass (kg)
RCS (m²)

Purposes: comms

External: N2YO · Heavens-Above · Gunter

§ Orbital elements

Epoch: 2026-05-25T02:31:02.883072Z

Period
95.64 min
Inclination
97.4537°
Eccentricity
0.0001782
Mean motion
15.05646097 rev/d
Perigee alt
548.3 km
Apogee alt
550.8 km
Semi-major
6,927.7 km
B*
5.3568e-6
RAAN
205.0362°
Arg perigee
140.8949°
Mean anomaly
219.2407°
Rev number
21,134

§ Raw data

STARLINK-44271 53210U 22084X   26145.10489448  .00000019  00000+0  53568-5 0  99942 53210  97.4537 205.0362 0001782 140.8949 219.2407 15.05646097211348

JSON: /api/v1/satellites/53210 · /tle

For live sub-satellite position, see the globe view (requires WebGL).

§ Visibility from observer

Set your observer location to see the next 7 days of passes ≥ 10°. The values pass through the URL so the page stays shareable.

No JS? Fill the form by hand. The geolocation button needs JavaScript.